Location: Taupo
(38.6830°S, 176.0830°E)
Time: 22:21:23
(UTC+12:00)

Mayak - Pass Details

Date: 24 January 2019
Orbit: 584 x 601 km, 97.6° (Epoch: 17 April)

Event Time Altitude Azimuth Distance (km) Brightness Sun altitude
Exits shadow 22:47:27 27° 111° (ESE) 1,161 0.0 -21.0°
Drops below altitude 10° 22:50:58 10° 167° (SSE) 1,947 1.9 -21.4°
Sets 22:53:24 0° 179° (S) 2,860 3.0 -21.7°
